Home   Weather   36°24'N, 138°16'E   Past weeks
Flag for Japan

Past Weather in 36°24'N, 138°16'E, Japan — Yesterday and Last 2 Weeks

Now
76 °F

Mild.


Feels Like: 78 °F
Forecast: 74 / 61 °F
Wind: 10 mph from Northeast

Location: Nagano

Current Time: Sep 23, 2019 at 10:53:04 pm

Latest Report: Sep 23, 2019 at 9:00 pm


Visibility: 13 mi

Pressure: 29.76 "Hg

Humidity: 66%

Dew Point: 64 °F

Location of 36°24'N, 138°16'ELocation

Past Weather in 36°24'N, 138°16'E — Graph

°F

36°24'N, 138°16'E Temperature Yesterday

Maximum temperature yesterday: 76 °F (at 2:00 pm)
Minimum temperature yesterday: 63 °F (at 6:00 am)
Average temperature yesterday: 70 °F

High & Low Weather Summary for the Past Weeks

 TemperatureHumidityPressure
High91 °F (Sep 23, 2:00 pm)98% (Sep 17, 6:00 am)30.19 "Hg (Sep 17, 6:00 am)
Low53 °F (Sep 20, 5:00 am)43% (Sep 23, 2:00 pm)29.47 "Hg (Sep 23, 1:00 pm)
Average72 °F74%29.91 "Hg
* Reported Sep 8 9:00 pm — Sep 23 9:00 pm, 36°24'N, 138°16'E. Weather by CustomWeather, © 2019

Note: Actual official high and low records may vary slightly from our data, if they occured in-between our weather recording intervals... More about our weather records

Advertising

36°24'N, 138°16'E Weather History for the Previous 24 Hours

Scroll right to see more
 ConditionsComfort  
Time TempWeatherWind HumidityBarometerVisibility
9:00 pm
Mon, Sep 23
76 °FMild.10 mph66%29.76 "Hg12 mi
8:00 pm78 °FWarm.6 mph69%29.71 "Hg12 mi
7:00 pm84 °FWarm.8 mph52%29.64 "Hg12 mi
6:00 pm86 °FWarm.14 mph48%29.58 "Hg12 mi
5:00 pm87 °FWarm.10 mph48%29.56 "Hg12 mi
4:00 pm91 °FHot.17 mph45%29.50 "Hg12 mi
3:00 pm90 °FHot.13 mph44%29.47 "Hg12 mi
2:00 pm91 °FHot.12 mph43%29.50 "Hg12 mi
1:00 pm90 °FHot.14 mph45%29.47 "Hg12 mi
12:00 pm89 °FHot.13 mph48%29.50 "Hg12 mi
11:00 am88 °FHot.10 mph50%29.50 "Hg12 mi
10:00 am82 °FLight rain. Cloudy.9 mph60%29.58 "Hg12 mi
9:00 am81 °FWarm.10 mph62%29.61 "Hg12 mi
8:00 am79 °FWarm.14 mph62%29.63 "Hg12 mi
7:00 am77 °FMild.14 mph67%29.65 "Hg12 mi
6:00 am75 °FMild.15 mph70%29.68 "Hg12 mi
5:00 am74 °FMild.13 mph72%29.70 "Hg12 mi
4:00 am73 °FMild.17 mph73%29.71 "Hg12 mi
3:00 am72 °FMild.14 mph75%29.75 "Hg12 mi
2:00 am72 °FMild.14 mph74%29.78 "Hg12 mi
1:00 am72 °FMild.17 mph72%29.81 "Hg12 mi
12:00 am72 °FMild.20 mph71%29.83 "Hg12 mi
11:00 pm
Sun, Sep 22
72 °FLight rain. Overcast.15 mph72%29.88 "Hg12 mi
10:00 pm72 °FMild.14 mph70%29.88 "Hg12 mi
Weather by CustomWeather, © 2019

See weather overview